Home   Weather   Cancún   Past weeks

Flag for Mexico Past Weather in Cancún, Quintana Roo, Mexico — Yesterday and Last 2 Weeks

Now
84 °F

Partly sunny.


Feels Like: 94 °F
Forecast: 79 / 88 °F
Wind: 9 mph from East

Location: Cancun International Airport

Current Time: Jun 27, 2017 at 7:20:33 pm

Latest Report: Jun 27, 2017 at 5:42 pm


Visibility: 7 mi

Pressure: 29.92 "Hg

Humidity: 79%

Dew Point: 77 °F

Location of CancúnLocation

Past Weather in Cancún — Graph

°F

Cancún Temperature Yesterday

Maximum temperature yesterday: 88 °F (at 10:48 am)
Minimum temperature yesterday: 77 °F (at 2:43 am)
Average temperature yesterday: 83 °F

High & Low Weather Summary for the Past Weeks

 TemperatureHumidityPressure
High88 °F (Jun 13, 12:46 pm)100% (Jun 16, 4:50 am)30.05 "Hg (Jun 16, 4:50 am)
Low75 °F (Jun 16, 5:51 am)59% (Jun 16, 11:50 am)29.56 "Hg (Jun 20, 9:50 am)
Average82 °F86%29.90 "Hg
* Reported Jun 12 5:40 pm — Jun 27 5:42 pm, Cancún. Weather by CustomWeather, © 2017

Note: Actual official high and low records may vary slightly from our data, if they occured in-between our weather recording intervals... More about our weather records

Advertising

Cancún Weather History for the Previous 24 Hours

Scroll right to see more
 ConditionsComfort  
Time TempWeatherWind HumidityBarometerVisibility
5:42 pm
Tue, Jun 27
84 °FPartly sunny.9 mph79%29.92 "Hg7 mi
4:40 pm88 °FScattered clouds.9 mph66%29.91 "Hg7 mi
3:43 pm88 °FScattered clouds.16 mph66%29.94 "Hg7 mi
2:45 pm88 °FScattered clouds.17 mph70%29.94 "Hg7 mi
1:47 pm86 °FPartly sunny.12 mph75%29.96 "Hg7 mi
12:48 pm88 °FPartly sunny.10 mph66%29.98 "Hg7 mi
11:48 am86 °FPartly sunny.10 mph75%29.99 "Hg7 mi
10:45 am86 °FPartly sunny.13 mph70%29.99 "Hg7 mi
9:48 am86 °FPartly sunny.13 mph75%30.00 "Hg7 mi
8:47 am84 °FScattered clouds.9 mph79%29.99 "Hg7 mi
7:48 am84 °FPartly sunny.9 mph79%29.98 "Hg7 mi
6:45 am81 °FPassing clouds.2 mph94%29.96 "Hg7 mi
5:44 am79 °FPassing clouds.3 mph100%29.96 "Hg7 mi
4:44 am77 °FPassing clouds.No wind100%29.95 "Hg7 mi
3:43 am79 °FPassing clouds.5 mph100%29.96 "Hg7 mi
2:40 am79 °FPassing clouds.5 mph100%29.97 "Hg7 mi
1:44 am79 °FPassing clouds.2 mph100%29.97 "Hg7 mi
12:47 am81 °FPassing clouds.5 mph94%29.99 "Hg7 mi
11:44 pm
Mon, Jun 26
81 °FPassing clouds.6 mph94%30.00 "Hg7 mi
10:40 pm82 °FPassing clouds.5 mph89%30.02 "Hg7 mi
9:42 pm82 °FPassing clouds.6 mph84%30.00 "Hg7 mi
8:41 pm82 °FPassing clouds.5 mph89%29.98 "Hg7 mi
7:44 pm82 °FPartly sunny.6 mph84%29.98 "Hg7 mi
Weather by CustomWeather, © 2017

See weather overviewHow to use our weather pages